NOZ105 ENEV-ENBR

Flight info

Callsign NOZ105
Flight time 1h 27m
Altitude 36000
Route GEPTU DCT LUNUR
Aircraft B738/M-SDE2E3GHIJ1LRWXY/LB1

Departure

Time 2026-04-22 19:07
Airport Harstad/Narvik Airport (ENEV)

Arrival

Time 2026-04-22 20:35
Airport Bergen Airport, Flesland (ENBR)
Time Latitude Longitude Altitude Speed Heading
2026-04-22 19:07 68.38938 16.12017 16498 ft 397 kts 215°
2026-04-22 19:07 68.36505 16.08407 17188 ft 401 kts 214°
2026-04-22 19:07 68.34047 16.04776 17887 ft 404 kts 214°
2026-04-22 19:08 68.31549 16.01208 18547 ft 409 kts 212°
2026-04-22 19:08 68.28972 15.97829 19112 ft 414 kts 211°
2026-04-22 19:08 68.26350 15.94511 19671 ft 418 kts 211°
2026-04-22 19:08 68.24221 15.91837 20122 ft 421 kts 211°
2026-04-22 19:09 68.21555 15.88478 20671 ft 425 kts 211°
2026-04-22 19:09 68.18869 15.85075 21232 ft 429 kts 212°
2026-04-22 19:09 68.17079 15.82798 21580 ft 432 kts 212°
2026-04-22 19:09 68.13451 15.78173 22287 ft 437 kts 212°
2026-04-22 19:10 68.10691 15.74655 22759 ft 441 kts 212°
2026-04-22 19:10 68.07902 15.71104 23208 ft 447 kts 212°
2026-04-22 19:10 68.05118 15.67568 23694 ft 451 kts 213°
2026-04-22 19:10 68.02272 15.63969 24153 ft 454 kts 213°
2026-04-22 19:11 67.99406 15.60356 24601 ft 457 kts 213°
2026-04-22 19:11 67.96525 15.56734 25026 ft 460 kts 213°
2026-04-22 19:11 67.93618 15.53088 25434 ft 463 kts 213°
2026-04-22 19:11 67.90692 15.49436 25859 ft 466 kts 213°
2026-04-22 19:12 67.87745 15.45757 26228 ft 470 kts 213°
2026-04-22 19:12 67.84776 15.42056 26629 ft 473 kts 213°
2026-04-22 19:12 67.81797 15.38358 27021 ft 475 kts 213°
2026-04-22 19:12 67.78822 15.34510 27311 ft 474 kts 218°
2026-04-22 19:13 67.76053 15.29886 27636 ft 471 kts 223°
2026-04-22 19:13 67.73345 15.24986 28019 ft 472 kts 224°
2026-04-22 19:13 67.70645 15.20025 28411 ft 474 kts 225°
2026-04-22 19:13 67.67937 15.15059 28766 ft 477 kts 224°
2026-04-22 19:14 67.65200 15.10086 29108 ft 480 kts 224°
2026-04-22 19:14 67.62437 15.05118 29443 ft 483 kts 224°
2026-04-22 19:14 67.59651 15.00157 29782 ft 485 kts 224°
2026-04-22 19:14 67.56852 14.95212 30166 ft 485 kts 223°
2026-04-22 19:15 67.54994 14.91949 30472 ft 485 kts 223°
2026-04-22 19:15 67.51251 14.85401 30944 ft 484 kts 223°
2026-04-22 19:15 67.48448 14.80508 31238 ft 485 kts 223°
2026-04-22 19:15 67.45640 14.75619 31584 ft 485 kts 223°
2026-04-22 19:16 67.42852 14.70787 32205 ft 478 kts 223°
2026-04-22 19:16 67.40088 14.66010 32606 ft 476 kts 223°
2026-04-22 19:16 67.37326 14.61232 32833 ft 479 kts 223°
2026-04-22 19:16 67.34540 14.56418 33117 ft 481 kts 223°
2026-04-22 19:17 67.31757 14.51631 33531 ft 479 kts 223°
2026-04-22 19:17 67.28989 14.46892 33929 ft 476 kts 223°
2026-04-22 19:17 67.26233 14.42189 34320 ft 474 kts 223°
2026-04-22 19:17 67.23482 14.37505 34594 ft 474 kts 223°
2026-04-22 19:18 67.20768 14.32888 34804 ft 474 kts 223°
2026-04-22 19:18 67.18006 14.28202 35040 ft 475 kts 223°
2026-04-22 19:18 67.15216 14.23484 35306 ft 474 kts 222°
2026-04-22 19:18 67.12460 14.18839 35627 ft 472 kts 222°
2026-04-22 19:19 67.09755 14.14296 35901 ft 471 kts 222°
2026-04-22 19:19 67.07013 14.09703 36102 ft 471 kts 222°
2026-04-22 19:19 67.04228 14.05045 36207 ft 474 kts 222°
2026-04-22 19:20 66.98716 13.95857 36197 ft 476 kts 221°
2026-04-22 19:20 66.93187 13.86719 36156 ft 470 kts 221°
2026-04-22 19:21 66.87713 13.77719 36182 ft 469 kts 221°
2026-04-22 19:21 66.82222 13.68713 36197 ft 471 kts 221°
2026-04-22 19:22 66.76733 13.59775 36166 ft 472 kts 221°
2026-04-22 19:22 66.71209 13.50819 36197 ft 473 kts 221°
2026-04-22 19:23 66.65648 13.41853 36199 ft 475 kts 221°
2026-04-22 19:23 66.60071 13.32919 36192 ft 474 kts 220°
2026-04-22 19:24 66.54505 13.24055 36192 ft 473 kts 220°
2026-04-22 19:24 66.48954 13.15259 36196 ft 471 kts 220°
2026-04-22 19:25 66.43422 13.06536 36209 ft 469 kts 220°
2026-04-22 19:25 66.37902 12.97875 36201 ft 469 kts 220°
2026-04-22 19:26 66.32387 12.89269 36205 ft 466 kts 219°
2026-04-22 19:26 66.26886 12.80730 36215 ft 466 kts 219°
2026-04-22 19:27 66.21389 12.72239 36206 ft 465 kts 219°
2026-04-22 19:27 66.15896 12.63801 36215 ft 465 kts 219°
2026-04-22 19:28 66.10394 12.55393 36205 ft 465 kts 219°
2026-04-22 19:28 66.04881 12.47009 36201 ft 466 kts 219°
2026-04-22 19:29 65.99365 12.38668 36211 ft 466 kts 219°
2026-04-22 19:29 65.94352 12.31122 36212 ft 467 kts 219°
2026-04-22 19:30 65.90685 12.25624 36214 ft 468 kts 218°
2026-04-22 19:30 65.84181 12.15920 36224 ft 469 kts 218°
2026-04-22 19:31 65.78607 12.07648 36223 ft 470 kts 218°
2026-04-22 19:31 65.73022 11.99404 36219 ft 470 kts 218°
2026-04-22 19:32 65.67429 11.91193 36193 ft 470 kts 217°
2026-04-22 19:32 65.61841 11.83033 36220 ft 468 kts 217°
2026-04-22 19:33 65.56264 11.74924 36236 ft 467 kts 217°
2026-04-22 19:33 65.50703 11.66882 36240 ft 465 kts 217°
2026-04-22 19:34 65.45160 11.58905 36238 ft 463 kts 216°
2026-04-22 19:34 65.39623 11.50976 36236 ft 463 kts 216°
2026-04-22 19:35 65.34144 11.43168 36240 ft 462 kts 216°
2026-04-22 19:35 65.28611 11.35322 36254 ft 461 kts 216°
2026-04-22 19:36 65.23091 11.27532 36254 ft 461 kts 216°
2026-04-22 19:36 65.17564 11.19770 36248 ft 461 kts 216°
2026-04-22 19:37 65.12032 11.12041 36251 ft 461 kts 216°
2026-04-22 19:37 65.06491 11.04336 36268 ft 462 kts 216°
2026-04-22 19:38 65.00939 10.96654 36264 ft 463 kts 215°
2026-04-22 19:38 64.95373 10.88989 36273 ft 463 kts 215°
2026-04-22 19:39 64.89792 10.81342 36252 ft 464 kts 214°
2026-04-22 19:39 64.84202 10.73725 36273 ft 464 kts 214°
2026-04-22 19:40 64.78609 10.66133 36263 ft 465 kts 214°
2026-04-22 19:40 64.73008 10.58568 36283 ft 465 kts 214°
2026-04-22 19:41 64.67478 10.51148 36280 ft 463 kts 214°
2026-04-22 19:41 64.61896 10.43676 36279 ft 462 kts 214°
2026-04-22 19:42 64.56320 10.36251 36284 ft 460 kts 213°
2026-04-22 19:42 64.50764 10.28888 36288 ft 459 kts 213°
2026-04-22 19:43 64.42453 10.17942 36293 ft 457 kts 213°
2026-04-22 19:43 64.36917 10.10693 36301 ft 457 kts 213°
2026-04-22 19:44 64.31391 10.03490 36302 ft 456 kts 213°
2026-04-22 19:44 64.25857 9.96311 36313 ft 456 kts 213°
2026-04-22 19:45 64.20329 9.89173 36313 ft 456 kts 213°
2026-04-22 19:45 64.14783 9.82043 36325 ft 457 kts 213°
2026-04-22 19:46 64.09230 9.74939 36322 ft 458 kts 212°
2026-04-22 19:46 64.03664 9.67851 36317 ft 458 kts 212°
2026-04-22 19:47 63.98127 9.60830 36331 ft 459 kts 212°
2026-04-22 19:47 63.92543 9.53785 36326 ft 459 kts 212°
2026-04-22 19:48 63.86949 9.46759 36328 ft 460 kts 212°
2026-04-22 19:48 63.81347 9.39756 36326 ft 460 kts 212°
2026-04-22 19:49 63.75739 9.32778 36336 ft 460 kts 211°
2026-04-22 19:49 63.70140 9.25847 36343 ft 458 kts 211°
2026-04-22 19:50 63.64558 9.18957 36351 ft 457 kts 211°
2026-04-22 19:50 63.58993 9.12126 36357 ft 455 kts 210°
2026-04-22 19:51 63.53442 9.05344 36359 ft 454 kts 210°
2026-04-22 19:51 63.47913 8.98615 36365 ft 452 kts 210°
2026-04-22 19:52 63.42388 8.91922 36367 ft 451 kts 210°
2026-04-22 19:52 63.36868 8.85261 36373 ft 451 kts 210°
2026-04-22 19:53 63.31347 8.78636 36399 ft 451 kts 210°
2026-04-22 19:53 63.25819 8.72023 36392 ft 452 kts 210°
2026-04-22 19:54 63.20273 8.65421 36390 ft 453 kts 210°
2026-04-22 19:54 63.14716 8.58834 36395 ft 453 kts 209°
2026-04-22 19:55 63.09146 8.52262 36391 ft 454 kts 209°
2026-04-22 19:55 63.03581 8.45724 36400 ft 453 kts 209°
2026-04-22 19:56 62.98014 8.39214 36402 ft 453 kts 208°
2026-04-22 19:56 62.92489 8.32779 36399 ft 452 kts 209°
2026-04-22 19:57 62.86946 8.26351 36410 ft 451 kts 208°
2026-04-22 19:57 62.81395 8.19942 36400 ft 450 kts 207°
2026-04-22 19:58 62.75862 8.13581 36404 ft 449 kts 207°
2026-04-22 19:58 62.70348 8.07269 36417 ft 447 kts 207°
2026-04-22 20:00 62.51190 7.85534 36443 ft 441 kts 207°
2026-04-22 20:01 62.45749 7.79428 36430 ft 440 kts 207°
2026-04-22 20:01 62.40315 7.73351 36360 ft 435 kts 207°
2026-04-22 20:01 62.37650 7.70378 36001 ft 429 kts 206°
2026-04-22 20:02 62.35008 7.67437 35579 ft 427 kts 207°
2026-04-22 20:02 62.32366 7.64502 35104 ft 426 kts 206°
2026-04-22 20:02 62.29738 7.61588 34645 ft 425 kts 206°
2026-04-22 20:02 62.27116 7.58686 34246 ft 421 kts 206°
2026-04-22 20:03 62.24524 7.55823 33867 ft 417 kts 206°
2026-04-22 20:03 62.22123 7.53177 33456 ft 415 kts 206°
2026-04-22 20:03 62.19562 7.50359 32993 ft 413 kts 206°
2026-04-22 20:03 62.17043 7.47593 32572 ft 411 kts 206°
2026-04-22 20:04 62.14507 7.44813 32186 ft 408 kts 206°
2026-04-22 20:04 62.11987 7.42057 31773 ft 406 kts 206°
2026-04-22 20:04 62.09471 7.39310 31346 ft 405 kts 206°
2026-04-22 20:04 62.06970 7.36584 30984 ft 402 kts 206°
2026-04-22 20:05 62.04493 7.33890 30651 ft 399 kts 206°
2026-04-22 20:05 62.02025 7.31210 30269 ft 396 kts 205°
2026-04-22 20:05 61.99577 7.28556 29841 ft 394 kts 204°
2026-04-22 20:05 61.97146 7.25923 29460 ft 390 kts 206°
2026-04-22 20:06 61.94737 7.23318 29026 ft 388 kts 205°
2026-04-22 20:06 61.92655 7.21074 28587 ft 389 kts 205°
2026-04-22 20:06 61.90241 7.18479 28092 ft 389 kts 206°
2026-04-22 20:06 61.87846 7.15902 27854 ft 383 kts 206°
2026-04-22 20:07 61.85486 7.13370 27536 ft 377 kts 206°
2026-04-22 20:07 61.83156 7.10876 27279 ft 373 kts 205°
2026-04-22 20:07 61.80852 7.08414 27025 ft 368 kts 205°
2026-04-22 20:07 61.78577 7.05987 26765 ft 366 kts 206°
2026-04-22 20:08 61.76289 7.03551 26524 ft 370 kts 206°
2026-04-22 20:08 61.74763 7.01930 26383 ft 373 kts 205°
2026-04-22 20:08 61.72090 6.99093 26094 ft 376 kts 205°
2026-04-22 20:08 61.69758 6.96624 25846 ft 375 kts 205°
2026-04-22 20:09 61.67430 6.94160 25609 ft 374 kts 205°
2026-04-22 20:09 61.65107 6.91702 25369 ft 373 kts 204°
2026-04-22 20:09 61.62791 6.89258 25132 ft 372 kts 205°
2026-04-22 20:09 61.60480 6.86825 24896 ft 371 kts 205°
2026-04-22 20:10 61.58178 6.84407 24662 ft 369 kts 205°
2026-04-22 20:10 61.55891 6.82004 24433 ft 368 kts 205°
2026-04-22 20:10 61.53603 6.79604 24192 ft 366 kts 205°
2026-04-22 20:10 61.51329 6.77225 23954 ft 364 kts 205°
2026-04-22 20:11 61.49068 6.74863 23687 ft 362 kts 205°
2026-04-22 20:11 61.46816 6.72516 23412 ft 361 kts 206°
2026-04-22 20:11 61.45004 6.70630 23197 ft 360 kts 205°
2026-04-22 20:11 61.42762 6.68299 22936 ft 359 kts 206°
2026-04-22 20:12 61.40531 6.65983 22661 ft 358 kts 206°
2026-04-22 20:12 61.38766 6.64153 22454 ft 357 kts 206°
2026-04-22 20:12 61.37267 6.62602 22270 ft 356 kts 206°
2026-04-22 20:12 61.34331 6.59567 21932 ft 355 kts 206°
2026-04-22 20:13 61.32120 6.57286 21665 ft 354 kts 206°
2026-04-22 20:13 61.29917 6.55015 21426 ft 353 kts 206°
2026-04-22 20:13 61.27768 6.52804 21173 ft 353 kts 206°
2026-04-22 20:13 61.25569 6.50546 20922 ft 353 kts 206°
2026-04-22 20:14 61.23364 6.48285 20685 ft 353 kts 206°
2026-04-22 20:14 61.21166 6.46034 20445 ft 352 kts 206°
2026-04-22 20:14 61.18971 6.43791 20193 ft 352 kts 206°
2026-04-22 20:14 61.16823 6.41599 19954 ft 350 kts 206°
2026-04-22 20:15 61.14649 6.39383 19712 ft 347 kts 206°
2026-04-22 20:15 61.12708 6.37408 19506 ft 344 kts 206°
2026-04-22 20:15 61.10567 6.35233 19265 ft 342 kts 206°
2026-04-22 20:15 61.08441 6.33076 19032 ft 340 kts 206°
2026-04-22 20:16 61.06321 6.30928 18791 ft 338 kts 206°
2026-04-22 20:16 61.04218 6.28800 18550 ft 336 kts 206°
2026-04-22 20:16 61.02467 6.27031 18333 ft 335 kts 206°
2026-04-22 20:16 61.01080 6.25632 18148 ft 334 kts 206°
2026-04-22 20:17 60.98453 6.22985 17822 ft 332 kts 207°
2026-04-22 20:17 60.96383 6.20902 17565 ft 331 kts 207°
2026-04-22 20:17 60.94317 6.18826 17308 ft 330 kts 207°
2026-04-22 20:17 60.92262 6.16764 17049 ft 329 kts 207°
2026-04-22 20:18 60.90212 6.14708 16782 ft 328 kts 207°
2026-04-22 20:18 60.88164 6.12658 16555 ft 327 kts 206°
2026-04-22 20:18 60.86810 6.11306 16367 ft 326 kts 207°
2026-04-22 20:18 60.85159 6.09659 16180 ft 326 kts 207°
2026-04-22 20:19 60.83095 6.07762 15923 ft 327 kts 200°
2026-04-22 20:19 60.80915 6.06422 15685 ft 326 kts 195°
2026-04-22 20:19 60.78723 6.05267 15446 ft 325 kts 195°
2026-04-22 20:19 60.76536 6.04092 15212 ft 325 kts 196°
2026-04-22 20:20 60.74354 6.02864 14965 ft 325 kts 197°
2026-04-22 20:20 60.72178 6.01611 14718 ft 324 kts 197°
2026-04-22 20:20 60.70012 6.00353 14497 ft 324 kts 197°
2026-04-22 20:20 60.67841 5.99091 14277 ft 324 kts 197°
2026-04-22 20:21 60.65680 5.97834 14004 ft 321 kts 198°
2026-04-22 20:21 60.63542 5.96591 13746 ft 317 kts 197°
2026-04-22 20:21 60.61432 5.95367 13474 ft 314 kts 197°
2026-04-22 20:21 60.59335 5.94152 13215 ft 312 kts 197°
2026-04-22 20:22 60.57256 5.92950 12942 ft 310 kts 197°
2026-04-22 20:22 60.55194 5.91759 12696 ft 308 kts 197°
2026-04-22 20:22 60.53136 5.90570 12435 ft 307 kts 197°
2026-04-22 20:22 60.51087 5.89388 12187 ft 306 kts 197°
2026-04-22 20:23 60.49046 5.88214 11934 ft 305 kts 197°
2026-04-22 20:23 60.47006 5.87042 11686 ft 304 kts 198°
2026-04-22 20:23 60.44975 5.85877 11423 ft 303 kts 197°
2026-04-22 20:23 60.42955 5.84721 11216 ft 300 kts 198°
2026-04-22 20:24 60.40954 5.83576 10960 ft 298 kts 198°
2026-04-22 20:24 60.38970 5.82443 10671 ft 296 kts 198°
2026-04-22 20:24 60.37041 5.81343 10511 ft 291 kts 198°
2026-04-22 20:24 60.35114 5.80244 10357 ft 286 kts 198°
2026-04-22 20:25 60.33196 5.79153 10047 ft 287 kts 198°
2026-04-22 20:25 60.31294 5.78070 9748 ft 286 kts 198°
2026-04-22 20:25 60.29389 5.76986 9469 ft 284 kts 198°
2026-04-22 20:25 60.27567 5.75968 9215 ft 283 kts 197°
2026-04-22 20:26 60.25679 5.74909 8930 ft 281 kts 198°
2026-04-22 20:26 60.23815 5.73840 8730 ft 275 kts 198°
2026-04-22 20:26 60.22233 5.72842 8544 ft 272 kts 207°
2026-04-22 20:26 60.20789 5.70441 7984 ft 274 kts 237°
2026-04-22 20:27 60.19672 5.67313 7602 ft 276 kts 238°
2026-04-22 20:27 60.18737 5.64753 7366 ft 276 kts 237°
2026-04-22 20:27 60.17580 5.61688 7137 ft 275 kts 236°
2026-04-22 20:27 60.16402 5.58657 6871 ft 275 kts 236°
2026-04-22 20:28 60.15216 5.55664 6609 ft 273 kts 235°
2026-04-22 20:28 60.14025 5.52700 6326 ft 272 kts 234°
2026-04-22 20:28 60.12847 5.49795 6077 ft 270 kts 234°
2026-04-22 20:28 60.11878 5.47413 5988 ft 264 kts 234°
2026-04-22 20:29 60.10761 5.44674 5857 ft 257 kts 234°
2026-04-22 20:29 60.09890 5.41634 5551 ft 248 kts 262°
2026-04-22 20:29 60.09848 5.38314 5299 ft 233 kts 282°
2026-04-22 20:29 60.10119 5.35166 5007 ft 226 kts 285°
2026-04-22 20:30 60.10417 5.32147 4706 ft 221 kts 285°
2026-04-22 20:30 60.10818 5.29346 4412 ft 210 kts 304°
2026-04-22 20:30 60.11725 5.27574 3758 ft 211 kts 339°
2026-04-22 20:30 60.13130 5.27239 3175 ft 211 kts
2026-04-22 20:31 60.14547 5.26870 2875 ft 200 kts 343°
2026-04-22 20:31 60.15853 5.26237 2610 ft 187 kts 353°
2026-04-22 20:31 60.17106 5.25907 2372 ft 177 kts 352°
2026-04-22 20:31 60.18267 5.25536 2149 ft 166 kts 351°
2026-04-22 20:32 60.19226 5.25215 1950 ft 157 kts 351°
2026-04-22 20:32 60.20248 5.24872 1759 ft 141 kts 351°
2026-04-22 20:32 60.21187 5.24557 1581 ft 134 kts 351°
2026-04-22 20:32 60.22108 5.24249 1455 ft 135 kts 351°
2026-04-22 20:33 60.23045 5.23935 1236 ft 136 kts 351°
2026-04-22 20:33 60.23963 5.23635 1046 ft 138 kts 351°
2026-04-22 20:33 60.24846 5.23336 821 ft 142 kts 349°
2026-04-22 20:33 60.25809 5.22979 630 ft 140 kts 349°
2026-04-22 20:34 60.26762 5.22677 433 ft 139 kts 349°
2026-04-22 20:34 60.27707 5.22492 356 ft 134 kts 341°
2026-04-22 20:34 60.28604 5.22063 172 ft 128 kts 350°
2026-04-22 20:34 60.29241 5.21849 158 ft 84 kts 350°
2026-04-22 20:35 60.29564 5.21735 147 ft 37 kts 349°
2026-04-22 20:35 60.29701 5.21776 149 ft 19 kts 59°
2026-04-22 20:35 60.29708 5.21995 147 ft 15 kts 132°
2026-04-22 20:35 60.29610 5.22045 148 ft 14 kts 170°
2026-04-22 20:36 60.29515 5.22080 153 ft 14 kts 169°
2026-04-22 20:36 60.29435 5.22110 156 ft 13 kts 169°
2026-04-22 20:36 60.29347 5.22143 159 ft 13 kts 169°
2026-04-22 20:36 60.29262 5.22164 162 ft 12 kts 173°
2026-04-22 20:37 60.29176 5.22185 162 ft 13 kts 172°
2026-04-22 20:37 60.29090 5.22218 161 ft 12 kts 169°
2026-04-22 20:37 60.29007 5.22251 161 ft 12 kts 168°
2026-04-22 20:37 60.28936 5.22275 161 ft 12 kts 173°
2026-04-22 20:38 60.28848 5.22299 161 ft 13 kts 171°
2026-04-22 20:38 60.28762 5.22334 162 ft 12 kts 168°
2026-04-22 20:38 60.28696 5.22393 163 ft 12 kts 120°
2026-04-22 20:38 60.28710 5.22553 166 ft 12 kts 80°
2026-04-22 20:39 60.28721 5.22683 169 ft 11 kts 80°
2026-04-22 20:39 60.28727 5.22704 170 ft 1 kts 46°
2026-04-22 20:39 60.28730 5.22710 170 ft 1 kts 46°
2026-04-22 20:39 60.28736 5.22719 170 ft 3 kts 39°
2026-04-22 20:40 60.28753 5.22742 171 ft 3 kts 32°
2026-04-22 20:40 60.28775 5.22769 172 ft 5 kts 31°
2026-04-22 20:40 60.28807 5.22806 172 ft 2 kts 37°
2026-04-22 20:40 60.28817 5.22854 172 ft 5 kts 78°
2026-04-22 20:41 60.28820 5.22878 172 ft 0 kts 79°
2026-04-22 20:41 60.28820 5.22881 172 ft 0 kts 79°